Terminal Aerodrome Forecast
Issued by NWS Quad Cities IA IL

Home | Current Version | Previous Version | Text Only | Print | Product List | Glossary On
Versions: 1 2 3 4 5 6 7 8 9 10 11 12 13 14 15 16 17 18 19 20 21 22 23 24 25 26 27 28 29 30 31 32 33 34 35 36 37 38 39 40 41 42 43 44 45 46 47
409
FTUS43 KDVN 281735
TAFMLI
TAF
KMLI 281735Z 2818/2918 06008KT 6SM BR OVC010
     FM290000 07007KT P6SM OVC018
     FM290300 07006KT 6SM BR OVC021
     FM291600 08013KT 6SM BR OVC020=

USA.gov is the U.S. government's official web portal to all federal, state and local government web resources and services.